Hourly Weather Roundup
Issued by NWS Central Illinois

Home | Current Version | Previous Version | Text Only | Print | Product List | Glossary On
Versions: 1 2 3 4 5 6 7 8 9 10 11 12 13 14 15 16 17 18 19 20 21 22 23 24 25 26 27 28 29 30 31 32 33 34 35 36 37 38 39 40 41 42 43 44 45 46 47 48 49 50
000
NZUS43 KILX 220910
HWRILX

AREA WEATHER ROUNDUP
NATIONAL WEATHER SERVICE, LINCOLN IL
300 AM CST SUN JAN 22 2017


CITY           SKY/WX    TMP DP  RH WIND       PRES   REMARKS
BLOOMINGTON    FOG       38  37  97 N14       29.56F VSB 1/4 WCI  30
CHAMPAIGN      CLEAR     48  42  80 NE10      29.52F
DANVILLE       RAIN      44  44  98 NE5       29.51F
DECATUR        CLEAR     42  41  96 NE8       29.52F
EFFINGHAM      CLEAR     51  51 100 CALM      29.52R
FLORA          PTCLDY    47  46  95 E3        29.51S
GALESBURG      CLOUDY    34  34 100 N3        29.58R FOG
JACKSONVILLE   CLEAR     42  41  97 N8        29.54S FOG
LACON          CLOUDY    38  38 100 CALM      29.58S FOG
LAWRENCEVILLE  CLEAR     48  47  96 NE5       29.51R
LITCHFIELD     PTCLDY    49  42  76 NE12      29.50R
$$


CITY           SKY/WX    TMP DP  RH WIND       PRES   REMARKS
LINCOLN        MOCLDY    41  41 100 N9        29.55S FOG     WCI  35
MACOMB         DRZL/FOG  36  36 100 NE6       29.59S VSB 1/4 WCI  31
MATTOON        FOG       44  43  96 N8        29.51R VSB 1/2
MT CARMEL AP   CLEAR     48  44  88 CALM      29.51R
OLNEY-NOBLE AP PTCLDY    48  48 100 CALM      29.52R
PARIS            N/A     43  43 100 NE3       29.53F FOG
PEORIA         FOG       41  41 100 NE8       29.57F VSB 1/2
PONTIAC        DRZL/FOG  41  41 100 N8        29.59F VSB 1/2
RANTOUL        CLEAR     46  45  95 NE8       29.54F
SPRINGFIELD    CLEAR     45  42  89 N9        29.54S
TAYLORVILLE    CLEAR     45  41  87 NE7       29.51F
$$

...REGIONAL REPORTS...


CITY           SKY/WX    TMP DP  RH WIND       PRES   REMARKS
CHICAGO O`HARE FOG       41  41 100 CALM      29.57F VSB 1/4
KANKAKEE       FOG       38  37  98 CALM      29.59S VSB 1/2
MOLINE         PTCLDY    32  29  88 CALM      29.58F FOG
MOUNT STERLING FOG       41  41  99 NE6       29.55R VSB 1/2
MOUNT VERNON   MOCLDY    42  41  96 CALM      29.50R
PITTSFIELD     PTCLDY    43  42  97 N5        29.55S FOG
QUINCY         CLOUDY    41  40  96 NE5       29.56R FOG
ROCKFORD       FOG       33  32  96 NW5       29.60R VSB 1/4 WCI  29
$$


CITY           SKY/WX    TMP DP  RH WIND       PRES   REMARKS
BURLINGTON     CLOUDY    37  37 100 NE6       29.57R FOG     WCI  32
CEDAR RAPIDS   FOG       29  28  96 S5        29.58R VSB 1/4 WCI  24
DES MOINES     FOG       33  33 100 N7        29.59S VSB 1/4 WCI  27
KIRKSVILLE     CLOUDY    40  40 100 E6        29.58R FOG
OTTUMWA        FOG       29  28  96 S3        29.58R VSB 1/4
ST LOUIS       CLOUDY    49  41  74 NW7       29.51R
$$


CITY           SKY/WX    TMP DP  RH WIND       PRES   REMARKS
TERRE HAUTE    FOG       41  39  93 NE5       29.52F VSB 3/4
EVANSVILLE     PTCLDY    51  46  83 CALM      29.52R
INDIANAPOLIS   PTCLDY    48  46  93 NE7       29.54F
LAFAYETTE      FOG       44  44 100 N5        29.54F VSB 1/2
MADISON        FOG       39  39 100 CALM      29.58R VSB 1/4
MILWAUKEE      CLOUDY    41  38  89 CALM      29.57F
$$






USA.gov is the U.S. government's official web portal to all federal, state and local government web resources and services.